KLM45N EDDM-EHAM

Flight info

Callsign KLM45N
Flight time 1h 5m
Altitude 36000
Route GIVMI6S GIVMI Y101 IBAGA DCT MASEK DCT MAPOX DCT NORKU
Aircraft A21N/M-SDE3FGHIRWY/LB1

Departure

Time 2026-05-06 09:42
Airport Munich Airport (EDDM)

Arrival

Time 2026-05-06 10:47
Airport Amsterdam Airport Schiphol (EHAM)
Time Latitude Longitude Altitude Speed Heading
2026-05-06 09:10 48.34996 11.78365 1481 ft 0 kts 83°
2026-05-06 09:28 48.34996 11.78364 1481 ft 1 kts 83°
2026-05-06 09:29 48.34994 11.78341 1481 ft 2 kts 83°
2026-05-06 09:29 48.34993 11.78319 1481 ft 2 kts 83°
2026-05-06 09:29 48.34992 11.78301 1481 ft 0 kts 83°
2026-05-06 09:29 48.34988 11.78283 1481 ft 2 kts 56°
2026-05-06 09:30 48.34977 11.78267 1481 ft 2 kts 25°
2026-05-06 09:30 48.34964 11.78262 1482 ft 0 kts 357°
2026-05-06 09:30 48.34959 11.78264 1482 ft 1 kts 352°
2026-05-06 09:30 48.34957 11.78264 1482 ft 0 kts 353°
2026-05-06 09:33 48.34969 11.78262 1481 ft 3 kts 355°
2026-05-06 09:33 48.35003 11.78257 1481 ft 5 kts 354°
2026-05-06 09:34 48.35049 11.78249 1481 ft 7 kts 353°
2026-05-06 09:34 48.35104 11.78239 1481 ft 8 kts 353°
2026-05-06 09:34 48.35167 11.78229 1481 ft 9 kts 352°
2026-05-06 09:34 48.35203 11.78158 1481 ft 10 kts 264°
2026-05-06 09:35 48.35195 11.78052 1481 ft 10 kts 263°
2026-05-06 09:35 48.35186 11.77940 1482 ft 11 kts 263°
2026-05-06 09:35 48.35216 11.77844 1481 ft 11 kts 345°
2026-05-06 09:35 48.35300 11.77827 1481 ft 12 kts 353°
2026-05-06 09:36 48.35380 11.77814 1480 ft 8 kts 354°
2026-05-06 09:36 48.35419 11.77807 1480 ft 2 kts 353°
2026-05-06 09:36 48.35445 11.77802 1480 ft 4 kts 353°
2026-05-06 09:36 48.35474 11.77797 1480 ft 0 kts 353°
2026-05-06 09:37 48.35480 11.77796 1480 ft 1 kts 353°
2026-05-06 09:37 48.35499 11.77793 1479 ft 4 kts 353°
2026-05-06 09:37 48.35539 11.77786 1479 ft 6 kts 354°
2026-05-06 09:37 48.35592 11.77777 1479 ft 8 kts 354°
2026-05-06 09:38 48.35655 11.77766 1478 ft 9 kts 353°
2026-05-06 09:38 48.35716 11.77756 1478 ft 7 kts 354°
2026-05-06 09:38 48.35770 11.77730 1477 ft 8 kts 338°
2026-05-06 09:38 48.35834 11.77700 1476 ft 10 kts 351°
2026-05-06 09:39 48.35909 11.77686 1476 ft 10 kts 354°
2026-05-06 09:39 48.35987 11.77674 1476 ft 11 kts 355°
2026-05-06 09:39 48.36072 11.77657 1475 ft 12 kts 358°
2026-05-06 09:39 48.36146 11.77704 1475 ft 10 kts 47°
2026-05-06 09:40 48.36194 11.77796 1474 ft 11 kts 53°
2026-05-06 09:40 48.36244 11.77900 1474 ft 12 kts 53°
2026-05-06 09:40 48.36356 11.78124 1472 ft 14 kts 55°
2026-05-06 09:41 48.36395 11.78287 1472 ft 22 kts 82°
2026-05-06 09:41 48.36445 11.78925 1470 ft 101 kts 85°
2026-05-06 09:41 48.36554 11.80343 1467 ft 168 kts 84°
2026-05-06 09:41 48.36694 11.82183 2027 ft 181 kts 83°
2026-05-06 09:42 48.36839 11.83996 2929 ft 180 kts 83°
2026-05-06 09:42 48.37180 11.85770 3668 ft 185 kts 56°
2026-05-06 09:42 48.38259 11.86911 4134 ft 204 kts 15°
2026-05-06 09:42 48.39723 11.86851 4585 ft 225 kts 350°
2026-05-06 09:43 48.41309 11.86378 5063 ft 244 kts 343°
2026-05-06 09:43 48.42742 11.85004 5742 ft 253 kts 310°
2026-05-06 09:43 48.43794 11.82897 6565 ft 258 kts 307°
2026-05-06 09:43 48.44997 11.80746 7136 ft 276 kts 310°
2026-05-06 09:44 48.46282 11.78570 7794 ft 288 kts 310°
2026-05-06 09:44 48.47626 11.76280 8639 ft 293 kts 309°
2026-05-06 09:44 48.48949 11.74001 9481 ft 296 kts 309°
2026-05-06 09:44 48.50301 11.71644 10307 ft 300 kts 308°
2026-05-06 09:45 48.51641 11.69288 11118 ft 302 kts 308°
2026-05-06 09:45 48.53012 11.66871 11921 ft 305 kts 307°
2026-05-06 09:45 48.54396 11.64426 12723 ft 308 kts 307°
2026-05-06 09:45 48.55778 11.61981 13486 ft 311 kts 307°
2026-05-06 09:46 48.57178 11.59499 14243 ft 314 kts 307°
2026-05-06 09:46 48.58597 11.56985 14771 ft 325 kts 307°
2026-05-06 09:46 48.60117 11.54286 15098 ft 343 kts 307°
2026-05-06 09:46 48.61683 11.51498 15402 ft 359 kts 307°
2026-05-06 09:47 48.63325 11.48578 15697 ft 376 kts 307°
2026-05-06 09:47 48.65067 11.45479 15983 ft 392 kts 307°
2026-05-06 09:47 48.66857 11.42292 16251 ft 406 kts 308°
2026-05-06 09:47 48.68738 11.39085 16594 ft 419 kts 311°
2026-05-06 09:48 48.70882 11.36041 17174 ft 425 kts 317°
2026-05-06 09:48 48.73222 11.33319 17783 ft 430 kts 322°
2026-05-06 09:48 48.75720 11.30747 18376 ft 434 kts 323°
2026-05-06 09:48 48.78241 11.28226 18962 ft 437 kts 324°
2026-05-06 09:49 48.80757 11.25709 19519 ft 441 kts 324°
2026-05-06 09:49 48.83297 11.23382 20026 ft 446 kts 328°
2026-05-06 09:49 48.86075 11.21311 20546 ft 452 kts 333°
2026-05-06 09:49 48.89028 11.19583 21074 ft 457 kts 338°
2026-05-06 09:50 48.92045 11.18034 21607 ft 460 kts 339°
2026-05-06 09:50 48.95068 11.16529 22110 ft 463 kts 339°
2026-05-06 09:50 48.98139 11.14998 22618 ft 466 kts 339°
2026-05-06 09:50 49.01193 11.13463 23090 ft 469 kts 338°
2026-05-06 09:51 49.04308 11.11883 23546 ft 472 kts 338°
2026-05-06 09:51 49.07428 11.10292 24012 ft 474 kts 338°
2026-05-06 09:51 49.10546 11.08698 24441 ft 476 kts 338°
2026-05-06 09:51 49.13696 11.07088 24966 ft 476 kts 338°
2026-05-06 09:52 49.16834 11.05487 25577 ft 474 kts 338°
2026-05-06 09:52 49.19906 11.03919 26139 ft 472 kts 338°
2026-05-06 09:52 49.23019 11.02322 26644 ft 471 kts 338°
2026-05-06 09:52 49.26104 11.00731 27083 ft 471 kts 337°
2026-05-06 09:53 49.29241 10.99110 27561 ft 471 kts 337°
2026-05-06 09:53 49.32321 10.97517 28011 ft 471 kts 337°
2026-05-06 09:53 49.35373 10.95841 28475 ft 468 kts 334°
2026-05-06 09:53 49.38347 10.93827 28953 ft 464 kts 329°
2026-05-06 09:54 49.41142 10.91515 29414 ft 460 kts 324°
2026-05-06 09:54 49.43842 10.88853 29886 ft 457 kts 321°
2026-05-06 09:54 49.46415 10.86104 30327 ft 455 kts 320°
2026-05-06 09:54 49.49003 10.83291 30748 ft 454 kts 320°
2026-05-06 09:55 49.51560 10.80524 31117 ft 454 kts 320°
2026-05-06 09:55 49.54166 10.77731 31479 ft 453 kts 320°
2026-05-06 09:55 49.56736 10.74985 31802 ft 453 kts 320°
2026-05-06 09:55 49.59309 10.72234 32124 ft 452 kts 320°
2026-05-06 09:56 49.61895 10.69465 32426 ft 452 kts 320°
2026-05-06 09:56 49.64446 10.66728 32717 ft 451 kts 320°
2026-05-06 09:56 49.67017 10.63963 32983 ft 451 kts 320°
2026-05-06 09:56 49.69563 10.61221 33268 ft 450 kts 320°
2026-05-06 09:57 49.72129 10.58458 33523 ft 450 kts 320°
2026-05-06 09:57 49.74716 10.55731 33756 ft 452 kts 322°
2026-05-06 09:57 49.77380 10.53136 34010 ft 453 kts 323°
2026-05-06 09:57 49.80062 10.50577 34217 ft 453 kts 323°
2026-05-06 09:58 49.82715 10.48057 34375 ft 454 kts 323°
2026-05-06 09:58 49.85422 10.45478 34563 ft 454 kts 323°
2026-05-06 09:58 49.88094 10.42923 34731 ft 456 kts 323°
2026-05-06 09:58 49.90771 10.40359 34935 ft 456 kts 324°
2026-05-06 09:59 49.93470 10.37768 35124 ft 456 kts 324°
2026-05-06 09:59 49.96172 10.35170 35300 ft 457 kts 324°
2026-05-06 09:59 49.98864 10.32580 35473 ft 457 kts 323°
2026-05-06 09:59 50.01569 10.29973 35644 ft 458 kts 323°
2026-05-06 10:00 50.04235 10.27395 35767 ft 459 kts 323°
2026-05-06 10:00 50.06954 10.24767 35774 ft 460 kts 323°
2026-05-06 10:00 50.12397 10.19495 35772 ft 460 kts 323°
2026-05-06 10:01 50.17136 10.14890 35779 ft 460 kts 324°
2026-05-06 10:01 50.22545 10.09622 35771 ft 460 kts 323°
2026-05-06 10:02 50.27965 10.04328 35778 ft 460 kts 324°
2026-05-06 10:02 50.33361 9.99042 35765 ft 460 kts 324°
2026-05-06 10:03 50.38777 9.93726 35770 ft 461 kts 324°
2026-05-06 10:03 50.44217 9.88369 35781 ft 461 kts 324°
2026-05-06 10:04 50.49609 9.83042 35761 ft 461 kts 324°
2026-05-06 10:04 50.55013 9.77690 35757 ft 461 kts 324°
2026-05-06 10:05 50.60431 9.72308 35765 ft 461 kts 324°
2026-05-06 10:05 50.65805 9.66953 35752 ft 461 kts 324°
2026-05-06 10:06 50.70982 9.61047 35757 ft 457 kts 317°
2026-05-06 10:06 50.75629 9.54300 35756 ft 455 kts 311°
2026-05-06 10:07 50.79756 9.46837 35740 ft 453 kts 306°
2026-05-06 10:07 50.83728 9.39156 35753 ft 452 kts 306°
2026-05-06 10:08 50.87696 9.31469 35744 ft 452 kts 306°
2026-05-06 10:08 50.91666 9.23783 35748 ft 453 kts 306°
2026-05-06 10:09 50.95615 9.16122 35750 ft 452 kts 306°
2026-05-06 10:09 50.99582 9.08406 35753 ft 452 kts 306°
2026-05-06 10:10 51.03550 9.00665 35752 ft 453 kts 306°
2026-05-06 10:10 51.07516 8.92899 35749 ft 453 kts 306°
2026-05-06 10:11 51.11476 8.85119 35764 ft 453 kts 306°
2026-05-06 10:11 51.15632 8.77657 35781 ft 455 kts 311°
2026-05-06 10:12 51.20029 8.70443 35772 ft 456 kts 311°
2026-05-06 10:12 51.24432 8.63224 35765 ft 455 kts 311°
2026-05-06 10:13 51.28830 8.55973 35770 ft 455 kts 311°
2026-05-06 10:13 51.33200 8.48740 35775 ft 455 kts 311°
2026-05-06 10:14 51.37574 8.41476 35758 ft 455 kts 311°
2026-05-06 10:14 51.41966 8.34158 35774 ft 455 kts 311°
2026-05-06 10:15 51.46326 8.26873 35785 ft 455 kts 311°
2026-05-06 10:15 51.50687 8.19565 35794 ft 456 kts 311°
2026-05-06 10:16 51.55044 8.12246 35794 ft 456 kts 311°
2026-05-06 10:16 51.59422 8.04863 35799 ft 455 kts 311°
2026-05-06 10:17 51.63760 7.97527 35818 ft 454 kts 311°
2026-05-06 10:17 51.68090 7.90183 35807 ft 454 kts 311°
2026-05-06 10:18 51.72430 7.82802 35819 ft 455 kts 311°
2026-05-06 10:18 51.76775 7.75389 35822 ft 455 kts 311°
2026-05-06 10:19 51.81083 7.68016 35840 ft 455 kts 311°
2026-05-06 10:19 51.85402 7.60605 35822 ft 454 kts 311°
2026-05-06 10:20 51.89729 7.53156 35837 ft 454 kts 311°
2026-05-06 10:20 51.94019 7.45747 35753 ft 455 kts 312°
2026-05-06 10:21 51.96186 7.41995 35495 ft 454 kts 312°
2026-05-06 10:21 51.98317 7.38299 35104 ft 453 kts 312°
2026-05-06 10:21 52.00465 7.34567 34518 ft 455 kts 311°
2026-05-06 10:21 52.02609 7.30836 33907 ft 456 kts 312°
2026-05-06 10:22 52.04765 7.27079 33221 ft 458 kts 312°
2026-05-06 10:22 52.06939 7.23285 32483 ft 460 kts 313°
2026-05-06 10:22 52.09120 7.19474 31761 ft 461 kts 313°
2026-05-06 10:22 52.11272 7.15710 31030 ft 462 kts 313°
2026-05-06 10:23 52.13473 7.11858 30213 ft 463 kts 313°
2026-05-06 10:23 52.15642 7.08060 29433 ft 463 kts 313°
2026-05-06 10:23 52.17806 7.04261 28648 ft 462 kts 313°
2026-05-06 10:23 52.19973 7.00449 27851 ft 462 kts 313°
2026-05-06 10:24 52.22115 6.96535 27040 ft 461 kts 310°
2026-05-06 10:24 52.24166 6.92515 26218 ft 461 kts 309°
2026-05-06 10:24 52.26172 6.88502 25382 ft 460 kts 309°
2026-05-06 10:24 52.26934 6.86967 25065 ft 460 kts 309°
2026-05-06 10:25 52.28244 6.84336 24513 ft 460 kts 309°
2026-05-06 10:25 52.30236 6.80326 23726 ft 456 kts 308°
2026-05-06 10:25 52.32209 6.76351 23219 ft 448 kts 308°
2026-05-06 10:25 52.34113 6.72516 22680 ft 442 kts 308°
2026-05-06 10:26 52.35743 6.69234 22200 ft 438 kts 309°
2026-05-06 10:26 52.37672 6.65347 21614 ft 435 kts 308°
2026-05-06 10:26 52.39558 6.61545 21040 ft 431 kts 309°
2026-05-06 10:26 52.41415 6.57789 20462 ft 428 kts 308°
2026-05-06 10:27 52.43272 6.54025 19884 ft 424 kts 308°
2026-05-06 10:27 52.45074 6.50236 19305 ft 421 kts 304°
2026-05-06 10:27 52.46405 6.46045 18739 ft 416 kts 290°
2026-05-06 10:27 52.47142 6.41522 18182 ft 411 kts 278°
2026-05-06 10:28 52.47432 6.36877 17643 ft 407 kts 275°
2026-05-06 10:28 52.47640 6.32317 17094 ft 404 kts 274°
2026-05-06 10:28 52.47841 6.27763 16537 ft 401 kts 274°
2026-05-06 10:28 52.48049 6.23197 15981 ft 398 kts 274°
2026-05-06 10:29 52.48263 6.18670 15417 ft 396 kts 275°
2026-05-06 10:29 52.48457 6.14620 14911 ft 393 kts 275°
2026-05-06 10:29 52.48670 6.10167 14360 ft 390 kts 275°
2026-05-06 10:29 52.48882 6.05746 13786 ft 387 kts 275°
2026-05-06 10:30 52.49093 6.01340 13131 ft 386 kts 275°
2026-05-06 10:30 52.49301 5.97001 12495 ft 384 kts 275°
2026-05-06 10:30 52.49505 5.92680 11901 ft 381 kts 275°
2026-05-06 10:30 52.49707 5.88357 11295 ft 379 kts 275°
2026-05-06 10:31 52.49903 5.84104 10874 ft 370 kts 275°
2026-05-06 10:31 52.50091 5.79987 10661 ft 357 kts 275°
2026-05-06 10:31 52.50271 5.76017 10431 ft 345 kts 275°
2026-05-06 10:31 52.50446 5.72131 10230 ft 334 kts 275°
2026-05-06 10:32 52.50611 5.68411 10012 ft 323 kts 275°
2026-05-06 10:32 52.50769 5.64813 9798 ft 313 kts 276°
2026-05-06 10:32 52.50922 5.61342 9590 ft 303 kts 276°
2026-05-06 10:32 52.50969 5.57921 9382 ft 295 kts 264°
2026-05-06 10:33 52.50394 5.54760 9085 ft 291 kts 244°
2026-05-06 10:33 52.49386 5.51894 8713 ft 290 kts 239°
2026-05-06 10:33 52.48330 5.49108 8306 ft 290 kts 239°
2026-05-06 10:33 52.47268 5.46311 7906 ft 289 kts 239°
2026-05-06 10:34 52.46208 5.43493 7513 ft 289 kts 240°
2026-05-06 10:34 52.45166 5.40698 7143 ft 287 kts 240°
2026-05-06 10:34 52.44140 5.37937 6764 ft 287 kts 240°
2026-05-06 10:34 52.43102 5.35138 6355 ft 286 kts 240°
2026-05-06 10:35 52.42083 5.32385 5994 ft 285 kts 239°
2026-05-06 10:35 52.41058 5.29622 5613 ft 284 kts 239°
2026-05-06 10:35 52.40034 5.26858 5228 ft 283 kts 239°
2026-05-06 10:35 52.39022 5.24130 4850 ft 282 kts 239°
2026-05-06 10:36 52.38015 5.21420 4499 ft 281 kts 239°
2026-05-06 10:36 52.37001 5.18695 4376 ft 280 kts 239°
2026-05-06 10:36 52.35981 5.15956 4367 ft 282 kts 239°
2026-05-06 10:36 52.34967 5.13246 4258 ft 281 kts 239°
2026-05-06 10:37 52.33920 5.10541 4140 ft 281 kts 238°
2026-05-06 10:37 52.32851 5.07873 4007 ft 281 kts 238°
2026-05-06 10:37 52.31782 5.05241 3872 ft 280 kts 238°
2026-05-06 10:37 52.30701 5.02599 3742 ft 280 kts 238°
2026-05-06 10:38 52.29608 4.99925 3614 ft 280 kts 238°
2026-05-06 10:38 52.28547 4.97312 3491 ft 280 kts 238°
2026-05-06 10:38 52.27477 4.94670 3369 ft 279 kts 238°
2026-05-06 10:38 52.26408 4.92025 3242 ft 279 kts 238°
2026-05-06 10:39 52.25340 4.89393 3113 ft 278 kts 238°
2026-05-06 10:39 52.24277 4.86777 2988 ft 278 kts 238°
2026-05-06 10:39 52.23195 4.84128 2861 ft 277 kts 238°
2026-05-06 10:39 52.22129 4.81532 2736 ft 276 kts 238°
2026-05-06 10:40 52.21060 4.78936 2613 ft 276 kts 238°
2026-05-06 10:40 52.19997 4.76358 2485 ft 276 kts 238°
2026-05-06 10:40 52.18931 4.73776 2360 ft 276 kts 238°
2026-05-06 10:40 52.17855 4.71175 2234 ft 276 kts 238°
2026-05-06 10:41 52.16783 4.68584 2110 ft 276 kts 238°
2026-05-06 10:41 52.15708 4.65986 1994 ft 275 kts 238°
2026-05-06 10:41 52.14648 4.63422 1987 ft 275 kts 238°
2026-05-06 10:41 52.13871 4.60678 1962 ft 257 kts 263°
2026-05-06 10:42 52.13963 4.57975 1957 ft 231 kts 295°
2026-05-06 10:42 52.14816 4.55846 1982 ft 223 kts 318°
2026-05-06 10:42 52.15913 4.54087 1989 ft 222 kts 322°
2026-05-06 10:42 52.17062 4.52379 1992 ft 222 kts 324°
2026-05-06 10:43 52.18378 4.51233 1971 ft 207 kts 355°
2026-05-06 10:43 52.19707 4.51512 1970 ft 193 kts 30°
2026-05-06 10:43 52.20735 4.52890 2001 ft 194 kts 48°
2026-05-06 10:44 52.22310 4.56467 1999 ft 193 kts 55°
2026-05-06 10:44 52.23024 4.58308 1997 ft 193 kts 56°
2026-05-06 10:44 52.23705 4.60101 1970 ft 180 kts 57°
2026-05-06 10:44 52.24341 4.61778 1772 ft 168 kts 56°
2026-05-06 10:45 52.24933 4.63335 1511 ft 157 kts 55°
2026-05-06 10:45 52.25479 4.64763 1266 ft 140 kts 56°
2026-05-06 10:45 52.25976 4.66056 1068 ft 131 kts 58°
2026-05-06 10:45 52.26451 4.67301 912 ft 130 kts 57°
2026-05-06 10:46 52.26930 4.68563 751 ft 131 kts 57°
2026-05-06 10:46 52.27418 4.69829 589 ft 134 kts 56°
2026-05-06 10:46 52.27921 4.71149 411 ft 136 kts 53°
2026-05-06 10:46 52.28430 4.72450 206 ft 137 kts 56°
2026-05-06 10:47 52.28930 4.73764 42 ft 133 kts 56°
2026-05-06 10:47 52.29370 4.74909 0 ft 99 kts 59°
2026-05-06 10:47 52.29639 4.75616 0 ft 47 kts 54°
2026-05-06 10:47 52.29813 4.75828 0 ft 11 kts 27°
2026-05-06 10:48 52.29887 4.75890 0 ft 12 kts 27°
2026-05-06 10:48 52.29962 4.75957 0 ft 12 kts 31°
2026-05-06 10:48 52.30021 4.76064 0 ft 12 kts 55°
2026-05-06 10:48 52.30070 4.76190 0 ft 13 kts 58°
2026-05-06 10:49 52.30120 4.76320 0 ft 13 kts 58°
2026-05-06 10:49 52.30170 4.76453 0 ft 13 kts 58°
2026-05-06 10:49 52.30223 4.76589 0 ft 14 kts 57°
2026-05-06 10:49 52.30275 4.76727 0 ft 14 kts 59°
2026-05-06 10:50 52.30329 4.76866 0 ft 14 kts 58°
2026-05-06 10:50 52.30380 4.76999 0 ft 10 kts 58°
2026-05-06 10:50 52.30439 4.77038 0 ft 10 kts 334°
2026-05-06 10:50 52.30504 4.76973 0 ft 11 kts 329°
2026-05-06 10:51 52.30572 4.76903 0 ft 11 kts 328°
2026-05-06 10:51 52.30610 4.76818 0 ft 9 kts 300°
2026-05-06 10:51 52.30627 4.76768 0 ft 3 kts 265°
2026-05-06 10:51 52.30608 4.76734 0 ft 5 kts 217°
2026-05-06 10:52 52.30582 4.76704 0 ft 2 kts 216°
2026-05-06 10:52 52.30576 4.76697 0 ft 0 kts 215°